{"data":{"norad_id":55964,"epoch":"2026-09-20T23:17:01.160448Z","epoch_age_seconds":65476,"freshness":"FRESH","line1":"1 55964U 23037BC  26263.97015232  .00010768  00000+0  61198-3 0  9991","line2":"2 55964  69.9936 118.8459 0002078 321.0606  39.0411 15.13104711194055","mean_motion":15.13104711,"eccentricity":0.0002078,"inclination_deg":69.9936,"raan_deg":118.8459,"arg_perigee_deg":321.0606,"mean_anomaly_deg":39.0411,"bstar":0.00061198,"rev_number":19405,"period_min":95.16856232959,"perigee_km":525.30366737824,"apogee_km":528.17333363625,"semimajor_km":6904.8755005072,"source":"CELESTRAK","updated_at":"2026-09-21T09:00:33.348685Z"}}